Tracking 20719 objects as of 26-May-2020
HD Live streaming from Space Station
objects crossing your sky now

IRIDIUM 131

Track IRIDIUM 131 now!
10-day predictions
IRIDIUM 131 is classified as:


NORAD ID: 43079
Int'l Code: 2017-083K
Perigee: 783.0 km
Apogee: 786.6 km
Inclination: 86.4 °
Period: 100.4 minutes
Semi major axis: 7155 km
RCS: Unknown
Launch date: December 23, 2017
Source: United States (US)
Launch site: AIR FORCE WESTERN TEST RANGE (AFWTR)
aabbcc
Your satellite tracking list
Your tracking list is empty




NASA's NSSDC Master Catalog

Two Line Element Set (TLE):
1 43079U 17083K   20146.64383164  .00000090  00000-0  24961-4 0  9995
2 43079  86.3984 167.1254 0002536  89.3603 270.7883 14.34219227126834
Source of the keplerian elements: AFSPC